[[{"header":{"parameterUnit":"m.s-1","parameterCategory":1,"la1":30.2991,"la2":30.254,"lo1":-89.0895,"lo2":-89.0444,"dy":0.0017,"dx":0.0017,"nx":28,"ny":28,"refTime":"2025-09-05T21:00:00:Z","depth":0,"parameterNumber":2,"parameterNumberName":"U-component_of_WINDS"},"data":[0,0,0,0,0,0,0,0,0,0,0,0,0,0,0,0,0,0,0,0,0,0,0,0,0,0,0,0,0,0,0,0,0,0,0,0,0,0,0,0,0,0,0,0,0,0,0,0,0,0,0,0,0,0,0,0,0,0,1.2141,1.2141,0,1.2136,1.2136,1.2136,1.212,1.2119,1.2119,1.2119,1.211,1.211,1.2111,0,0,0,0,0,0,0,0,0,0,0,0,0,1.2134,1.2134,1.2141,1.2141,1.2141,1.2136,1.2136,1.2136,1.212,1.2119,1.2119,1.2118,1.211,1.211,1.2111,0,0,0,0,0,0,0,0,0,0,0,0,0,1.2133,1.2134,1.2141,1.2133,1.2132,1.2136,1.2136,1.2136,1.212,1.2119,1.2119,1.2118,1.211,1.211,1.2111,1.2122,0,0,1.2111,1.2111,0,0,0,0,0,0,0,0,1.2133,1.2134,1.2134,1.2133,1.2132,1.2128,1.213,1.2131,1.212,1.2124,1.2119,1.2118,1.2116,1.2116,1.2116,1.2121,1.2121,1.2111,1.2111,1.2111,1.2111,0,0,0,0,0,0,0,1.2133,1.2134,1.2139,1.2134,1.2133,1.2127,1.2127,1.213,1.2123,1.2124,1.2123,1.2122,1.2116,1.2116,1.2116,1.2121,1.2111,1.2111,1.2111,1.2111,1.2131,1.2131,0,0,0,0,0,0,1.2135,1.2134,1.2139,1.2139,1.2132,1.2128,1.2127,1.213,1.2123,1.2122,1.2123,1.2122,1.2116,1.2116,1.2115,1.2126,1.2111,1.2111,1.2111,1.2131,1.2131,1.2132,0,0,0,0,0,0,1.2135,1.2136,1.214,1.2136,1.2136,1.2129,1.2132,1.213,1.213,1.2122,1.2121,1.2124,1.2115,1.2115,1.212,1.2125,1.2111,1.2111,1.213,1.2131,1.2131,1.2148,0,0,0,0,0,0,1.2135,1.2136,1.2142,1.2136,1.2136,1.2145,1.2132,1.213,1.2131,1.2129,1.2123,1.2122,1.2115,1.2119,1.212,1.2125,1.2112,1.2129,1.213,1.2131,1.2147,1.2149,1.2151,0,0,0,0,0,1.2135,1.2147,1.2142,1.2143,1.2143,1.2146,1.2146,1.2138,1.2131,1.2136,1.213,1.2122,1.2125,1.212,1.212,1.2126,1.2129,1.213,1.2131,1.2146,1.2149,1.2151,0,0,0,0,0,0,1.2153,1.2146,1.2141,1.2152,1.2149,1.2143,1.2149,1.2142,1.2141,1.214,1.2129,1.2128,1.2133,1.213,1.2125,1.2134,1.2125,1.2126,1.2137,1.2139,1.2141,1.2141,1.2112,0,0,0,0,0,1.2158,1.2162,1.2155,1.2165,1.2164,1.2157,1.2158,1.2152,1.2149,1.2148,1.2143,1.2139,1.2138,1.2139,1.2138,1.2146,1.2143,1.215,1.2152,1.2154,1.2154,1.2155,1.2157,1.2135,1.2135,1.2135,0,0,1.2169,1.2165,1.2169,1.2168,1.2166,1.2168,1.2156,1.216,1.2161,1.2148,1.2151,1.2147,1.2142,1.2148,1.215,1.2145,1.216,1.2155,1.2156,1.2156,1.2157,1.2159,1.2161,1.2135,1.2135,1.2135,0,0,1.2189,1.2188,1.2195,1.2192,1.2189,1.2183,1.2185,1.2179,1.2176,1.2179,1.2169,1.2169,1.2169,1.2165,1.2164,1.2179,1.2171,1.2179,1.219,1.2191,1.2193,1.2194,1.2198,1.2199,1.218,1.218,1.218,0,1.2203,1.2207,1.2199,1.2203,1.2202,1.219,1.2196,1.2193,1.2189,1.2188,1.2183,1.2181,1.2177,1.218,1.2184,1.2183,1.2183,1.218,1.2193,1.2195,1.2196,1.2199,1.2201,1.2181,1.2181,1.2181,1.2181,0,1.2223,1.2226,1.2231,1.2228,1.2227,1.2232,1.2223,1.2223,1.2217,1.2211,1.2213,1.2207,1.2204,1.2204,1.2198,1.2205,1.2202,1.2195,1.2186,1.2199,1.2202,1.2203,1.2182,1.2182,1.2182,1.2181,0,0,1.2256,1.2246,1.2248,1.2245,1.2239,1.224,1.2243,1.224,1.2239,1.2236,1.2237,1.2236,1.2228,1.2226,1.2219,1.222,1.223,1.2213,1.2212,1.2215,1.2235,1.2239,1.2241,1.2224,1.2225,1.2225,1.2235,0,1.2274,1.2279,1.2271,1.2277,1.2278,1.2265,1.2267,1.2262,1.2256,1.2255,1.2247,1.2246,1.2238,1.2236,1.2236,1.2229,1.2234,1.2228,1.2223,1.2223,1.2224,1.2243,1.2249,1.2258,1.2236,1.2236,1.2236,0,1.2296,1.2294,1.23,1.2291,1.2291,1.2293,1.2288,1.2287,1.2281,1.2276,1.2272,1.2263,1.2263,1.2254,1.2252,1.2248,1.2245,1.2241,1.2241,1.224,1.223,1.2241,1.2262,1.2263,1.2238,1.2238,1.2238,0,1.2317,1.2315,1.2318,1.2316,1.2306,1.2307,1.2303,1.2296,1.2293,1.2289,1.2287,1.2282,1.2279,1.2274,1.2263,1.2258,1.2262,1.2253,1.2256,1.2257,1.2258,1.2258,1.2277,1.2257,1.2257,1.2257,1.2257,0,1.2337,1.2341,1.2327,1.2329,1.2332,1.2321,1.2324,1.2318,1.2311,1.231,1.2298,1.2297,1.2284,1.228,1.2272,1.227,1.2269,1.2264,1.2261,1.2264,1.2265,1.2262,1.2261,1.2258,1.2258,1.2258,1.2258,0,1.2361,1.2352,1.2354,1.2344,1.2341,1.2344,1.2334,1.2334,1.2326,1.2325,1.2324,1.2312,1.2307,1.2296,1.2288,1.2282,1.2282,1.2278,1.2285,1.2283,1.2287,1.2286,1.2304,1.2305,1.2286,1.2286,1.2286,0,1.2375,1.2377,1.2367,1.2365,1.2361,1.2359,1.2357,1.2345,1.2342,1.2333,1.2334,1.2328,1.2323,1.2315,1.2305,1.2298,1.2294,1.23,1.2292,1.2295,1.2292,1.2291,1.2291,1.2302,1.2302,1.2302,1.2303,0,1.2398,1.2393,1.239,1.2385,1.2382,1.2377,1.2372,1.2371,1.2357,1.2355,1.235,1.2346,1.2337,1.2331,1.2322,1.2316,1.2306,1.2305,1.2305,1.2308,1.2311,1.2308,1.2288,1.2305,1.2304,1.2304,1.2304,1.2304,1.2416,1.2417,1.2409,1.2405,1.2399,1.2394,1.2393,1.2385,1.2381,1.2373,1.2366,1.2361,1.2351,1.2339,1.2333,1.2327,1.2323,1.2324,1.2324,1.2324,1.2325,1.2312,1.2326,1.2326,1.2326,1.2326,1.2326,0,1.2437,1.2431,1.2428,1.242,1.2417,1.2408,1.2401,1.2398,1.2394,1.2387,1.2381,1.2374,1.2368,1.2356,1.2348,1.2346,1.2341,1.2344,1.2343,1.2341,1.233,1.233,1.2347,1.2347,1.2347,1.2347,1.2347,1.2347,1.2448,1.2448,1.2441,1.2437,1.2431,1.2426,1.2423,1.2417,1.241,1.2403,1.2397,1.239,1.238,1.237,1.2363,1.2359,1.2356,1.236,1.2355,1.2345,1.2343,1.2341,1.2341,1.236,1.236,1.2367,1.2367,1.2367]},{"header":{"parameterUnit":"m.s-1","parameterCategory":1,"la1":30.2991,"la2":30.254,"lo1":-89.0895,"lo2":-89.0444,"dy":0.0017,"dx":0.0017,"nx":28,"ny":28,"refTime":"2025-09-05T21:00:00:Z","depth":0,"parameterNumber":3,"parameterNumberName":"V-component_of_WINDS"},"data":[0,0,0,0,0,0,0,0,0,0,0,0,0,0,0,0,0,0,0,0,0,0,0,0,0,0,0,0,0,0,0,0,0,0,0,0,0,0,0,0,0,0,0,0,0,0,0,0,0,0,0,0,0,0,0,0,0,0,0.5846,0.5845,0,0.5836,0.5836,0.5836,0.5802,0.5801,0.58,0.5799,0.5789,0.5789,0.579,0,0,0,0,0,0,0,0,0,0,0,0,0,0.5831,0.5831,0.5846,0.5845,0.5845,0.5836,0.5836,0.5836,0.5802,0.5801,0.58,0.5799,0.5789,0.5789,0.579,0,0,0,0,0,0,0,0,0,0,0,0,0,0.5831,0.5831,0.5846,0.5827,0.5825,0.5836,0.5836,0.5836,0.5802,0.5801,0.58,0.5798,0.5788,0.5789,0.579,0.5817,0,0,0.5792,0.5792,0,0,0,0,0,0,0,0,0.5831,0.5831,0.583,0.5828,0.5826,0.5819,0.5827,0.583,0.5802,0.5811,0.5799,0.5798,0.58,0.5799,0.58,0.5817,0.5817,0.5792,0.5792,0.5793,0.5793,0,0,0,0,0,0,0,0.5831,0.5832,0.5842,0.583,0.5828,0.5818,0.5817,0.5827,0.5812,0.581,0.5807,0.5807,0.5798,0.58,0.58,0.5816,0.5792,0.5792,0.5793,0.5793,0.5852,0.5854,0,0,0,0,0,0,0.5834,0.5832,0.5842,0.5842,0.5826,0.582,0.5818,0.5822,0.5812,0.5809,0.5808,0.5805,0.5799,0.5799,0.5799,0.5829,0.5793,0.5793,0.5794,0.5851,0.5853,0.5854,0,0,0,0,0,0,0.5834,0.5835,0.5842,0.5836,0.5836,0.5821,0.5826,0.5823,0.5824,0.581,0.5807,0.5812,0.5798,0.5798,0.5813,0.5828,0.5793,0.5794,0.585,0.5852,0.5853,0.589,0,0,0,0,0,0,0.5833,0.5835,0.5846,0.5837,0.5837,0.5857,0.5827,0.5824,0.5825,0.5822,0.5813,0.5811,0.5797,0.5812,0.5813,0.5829,0.5795,0.5848,0.5851,0.5853,0.5888,0.5893,0.5898,0,0,0,0,0,0.5833,0.5858,0.5847,0.5849,0.5851,0.5858,0.5858,0.5842,0.5827,0.5837,0.5828,0.5811,0.5826,0.5814,0.5815,0.5831,0.5847,0.585,0.5853,0.5885,0.5892,0.5898,0,0,0,0,0,0,0.587,0.5856,0.5844,0.5867,0.5864,0.5852,0.5865,0.585,0.5852,0.5848,0.5828,0.5827,0.5844,0.5839,0.5825,0.5855,0.5834,0.5837,0.5858,0.5864,0.5869,0.587,0.5795,0,0,0,0,0,0.5881,0.5889,0.5876,0.5897,0.5896,0.5881,0.5884,0.5872,0.5868,0.5866,0.5858,0.5854,0.5858,0.5861,0.5864,0.5887,0.5883,0.5898,0.5903,0.5907,0.591,0.5919,0.5925,0.5863,0.5863,0.5863,0,0,0.5903,0.5896,0.5903,0.5904,0.59,0.5908,0.588,0.589,0.5895,0.5868,0.588,0.5874,0.5868,0.5886,0.5894,0.5883,0.5926,0.5911,0.5914,0.5914,0.5922,0.5928,0.5934,0.5864,0.5864,0.5864,0,0,0.5947,0.5944,0.596,0.5956,0.5951,0.594,0.5944,0.5934,0.5929,0.5941,0.592,0.5926,0.5933,0.5929,0.5928,0.5969,0.5952,0.597,0.5997,0.6006,0.6011,0.6015,0.6028,0.6032,0.5973,0.5973,0.5973,0,0.5976,0.5987,0.597,0.598,0.598,0.5956,0.597,0.5968,0.5964,0.5964,0.5952,0.5959,0.5954,0.5969,0.5979,0.5979,0.5982,0.5971,0.6012,0.6016,0.6019,0.6031,0.6036,0.5975,0.5975,0.5975,0.5975,0,0.6021,0.6029,0.6042,0.6038,0.604,0.6053,0.6036,0.604,0.6027,0.6017,0.6029,0.6022,0.6021,0.6024,0.6013,0.6038,0.6031,0.6015,0.5993,0.6028,0.6038,0.6043,0.5978,0.5977,0.5977,0.5976,0,0,0.6089,0.6074,0.6079,0.6076,0.6067,0.6072,0.6083,0.6083,0.6085,0.6083,0.609,0.6096,0.6081,0.608,0.6067,0.6075,0.6105,0.6059,0.6058,0.6066,0.613,0.6141,0.6147,0.6094,0.6095,0.6096,0.613,0,0.613,0.6148,0.6132,0.6152,0.6158,0.6133,0.6142,0.6137,0.6128,0.6131,0.612,0.6124,0.6105,0.6104,0.6111,0.61,0.6118,0.6098,0.61,0.61,0.6101,0.6152,0.6164,0.6197,0.6134,0.6135,0.6135,0,0.618,0.6179,0.62,0.6188,0.619,0.6198,0.6195,0.6199,0.6192,0.6184,0.6182,0.6166,0.6174,0.6152,0.6162,0.6149,0.6149,0.6143,0.6144,0.6143,0.6119,0.6151,0.6207,0.6212,0.6142,0.6142,0.6141,0,0.6226,0.623,0.6242,0.624,0.6227,0.6233,0.6227,0.6219,0.6219,0.6217,0.6216,0.6214,0.6213,0.6212,0.6195,0.6181,0.6206,0.6184,0.6199,0.6199,0.6205,0.6204,0.626,0.6206,0.6206,0.6206,0.6206,0,0.6272,0.6286,0.6262,0.627,0.6283,0.6264,0.6277,0.6269,0.6262,0.6266,0.6245,0.625,0.6228,0.6229,0.6216,0.6225,0.6225,0.6218,0.6214,0.622,0.622,0.6219,0.6215,0.6208,0.6207,0.6207,0.6207,0,0.6326,0.631,0.6322,0.6308,0.6304,0.6315,0.6302,0.6307,0.6296,0.6302,0.6302,0.6285,0.6285,0.6268,0.6266,0.6257,0.6271,0.6264,0.6273,0.6271,0.6286,0.6284,0.6342,0.6347,0.6291,0.6292,0.6293,0,0.6356,0.6365,0.6352,0.6353,0.6349,0.6352,0.6351,0.6332,0.6332,0.6323,0.6329,0.6328,0.6326,0.6328,0.6315,0.6312,0.6304,0.6324,0.6303,0.6307,0.6302,0.6301,0.6301,0.6328,0.6329,0.6329,0.633,0,0.6411,0.6402,0.6403,0.64,0.64,0.6397,0.6392,0.6395,0.6373,0.6374,0.6374,0.6373,0.6369,0.6368,0.6362,0.6355,0.6338,0.6336,0.6339,0.6344,0.6349,0.6345,0.6284,0.6335,0.6335,0.6334,0.6334,0.6334,0.6452,0.6459,0.6449,0.645,0.6444,0.644,0.6444,0.6433,0.6433,0.6429,0.6417,0.6419,0.6409,0.6399,0.6394,0.6394,0.6384,0.6389,0.639,0.6391,0.6393,0.635,0.6393,0.6393,0.6393,0.6393,0.6392,0,0.6505,0.6497,0.6498,0.6491,0.6491,0.6475,0.6469,0.647,0.6472,0.6464,0.6462,0.6461,0.6459,0.6445,0.6441,0.6443,0.6435,0.6443,0.6442,0.644,0.6403,0.64,0.6449,0.6449,0.6449,0.6449,0.6449,0.6449,0.6532,0.6541,0.6531,0.6537,0.6529,0.653,0.6528,0.6523,0.6516,0.6517,0.6515,0.6505,0.6494,0.6489,0.6485,0.6481,0.648,0.649,0.6483,0.6448,0.6443,0.6438,0.6435,0.649,0.649,0.6519,0.6519,0.652]}]]